• In Deutschland
  • Länderverzeichnis
  • Für 7 Tage
  • Wassertemperatur
  • Satellitenkarten
  • Wetterkarte
  • Widgets
  • user-avatar
    Anmelden

    Stündliche Wetter Freital

    Heute, 18 Februar, Sonntag

    Zeit Temperatur Niederschläge Wind Luftdruck Luftfeuchtigkeit
    00:00 0°C° 0 mm 1 m/S 749 mmHg 94%
    01:00 0°C° 0 mm 1 m/S 749 mmHg 95%
    02:00 0°C° 0 mm 1 m/S 750 mmHg 95%
    03:00 0°C° 0 mm 1 m/S 750 mmHg 96%
    04:00 0°C° 0 mm 1 m/S 750 mmHg 96%
    05:00 0°C° 0 mm 1 m/S 750 mmHg 95%
    06:00 0°C° 0 mm 1 m/S 751 mmHg 95%
    07:00 0°C° 0 mm 1 m/S 751 mmHg 94%
    08:00 0°C° 0 mm 1 m/S 751 mmHg 90%
    09:00 +1°C° 0 mm 1 m/S 751 mmHg 86%
    10:00 +2°C° 0 mm 1 m/S 752 mmHg 82%
    11:00 +2°C° 0 mm 1 m/S 752 mmHg 78%
    12:00 +3°C° 0 mm 1 m/S 752 mmHg 74%
    13:00 +4°C° 0 mm 1 m/S 752 mmHg 70%
    14:00 +4°C° 0 mm 1 m/S 751 mmHg 70%
    15:00 +4°C° 0 mm 1 m/S 751 mmHg 70%
    16:00 +4°C° 0 mm 1 m/S 751 mmHg 71%
    17:00 +2°C° 0 mm 1 m/S 751 mmHg 76%
    18:00 +1°C° 0 mm 1 m/S 751 mmHg 80%
    19:00 0°C° 0 mm 1 m/S 751 mmHg 85%
    20:00 0°C° 0 mm 1 m/S 751 mmHg 86%
    21:00 0°C° 0 mm 1 m/S 751 mmHg 86%
    22:00 0°C° 0 mm 1 m/S 751 mmHg 86%
    23:00 0°C° 0 mm 1 m/S 751 mmHg 86%

    Morgen, 19 Februar, Montag

    Zeit Temperatur Niederschläge Wind Luftdruck Luftfeuchtigkeit
    00:00 0°C° 0 mm 1 m/S 750 mmHg 86%
    01:00 -1°C° 0 mm 1 m/S 750 mmHg 86%
    02:00 -1°C° 0 mm 1 m/S 750 mmHg 86%
    03:00 -1°C° 0 mm 1 m/S 749 mmHg 86%
    04:00 -1°C° 0 mm 1 m/S 749 mmHg 85%
    05:00 -1°C° 0 mm 1 m/S 749 mmHg 85%
    06:00 -1°C° 0 mm 1 m/S 748 mmHg 85%
    07:00 -1°C° 0 mm 1 m/S 748 mmHg 84%
    08:00 0°C° 0 mm 1 m/S 748 mmHg 78%
    09:00 +1°C° 0 mm 1 m/S 748 mmHg 72%
    10:00 +3°C° 0 mm 1 m/S 748 mmHg 65%
    11:00 +3°C° 0 mm 1 m/S 748 mmHg 61%
    12:00 +4°C° 0 mm 1 m/S 747 mmHg 57%
    13:00 +5°C° 0 mm 1 m/S 747 mmHg 52%
    14:00 +5°C° 0 mm 1 m/S 746 mmHg 54%
    15:00 +5°C° 0 mm 1 m/S 746 mmHg 56%
    16:00 +5°C° 0 mm 1 m/S 746 mmHg 58%
    17:00 +3°C° 0 mm 1 m/S 746 mmHg 62%
    18:00 +2°C° 0 mm 1 m/S 745 mmHg 65%
    19:00 +1°C° 0 mm 1 m/S 745 mmHg 68%
    20:00 +1°C° 0 mm 1 m/S 745 mmHg 68%
    21:00 +1°C° 0 mm 1 m/S 745 mmHg 68%
    22:00 +1°C° 0 mm 1 m/S 745 mmHg 68%
    23:00 0°C° 0 mm 1 m/S 745 mmHg 69%

    übermorgen, 20 Februar, Dienstag

    Zeit Temperatur Niederschläge Wind Luftdruck Luftfeuchtigkeit
    00:00 0°C° 0 mm 1 m/S 745 mmHg 70%
    01:00 0°C° 0 mm 1 m/S 745 mmHg 71%
    02:00 0°C° 0 mm 1 m/S 744 mmHg 73%
    03:00 0°C° 0 mm 1 m/S 744 mmHg 75%
    04:00 0°C° 0 mm 1 m/S 744 mmHg 77%
    05:00 0°C° 0 mm 1 m/S 744 mmHg 78%
    06:00 0°C° 0 mm 1 m/S 744 mmHg 79%
    07:00 -1°C° 0 mm 1 m/S 744 mmHg 80%
    08:00 0°C° 0 mm 1 m/S 744 mmHg 75%
    09:00 +1°C° 0 mm 1 m/S 744 mmHg 70%
    10:00 +1°C° 0 mm 2 m/S 744 mmHg 65%
    11:00 +2°C° 0 mm 2 m/S 744 mmHg 60%
    12:00 +3°C° 0 mm 2 m/S 744 mmHg 56%
    13:00 +4°C° 0 mm 2 m/S 744 mmHg 51%
    14:00 +4°C° 0 mm 2 m/S 744 mmHg 53%
    15:00 +4°C° 0 mm 2 m/S 744 mmHg 54%
    16:00 +3°C° 0 mm 2 m/S 744 mmHg 56%
    17:00 +2°C° 0 mm 2 m/S 744 mmHg 62%
    18:00 +1°C° 0 mm 2 m/S 744 mmHg 68%
    19:00 -2°C° 0 mm 2 m/S 744 mmHg 74%
    20:00 -2°C° 0 mm 2 m/S 745 mmHg 76%
    21:00 -3°C° 0 mm 2 m/S 745 mmHg 78%
    22:00 -3°C° 0 mm 2 m/S 745 mmHg 80%
    23:00 -3°C° 0 mm 2 m/S 745 mmHg 81%

    21 Februar, Mittwoch

    Zeit Temperatur Niederschläge Wind Luftdruck Luftfeuchtigkeit
    00:00 -3°C° 0 mm 2 m/S 745 mmHg 82%
    01:00 -4°C° 0 mm 2 m/S 745 mmHg 83%
    02:00 -4°C° 0 mm 2 m/S 745 mmHg 83%
    03:00 -4°C° 0 mm 2 m/S 745 mmHg 84%
    04:00 -4°C° 0 mm 2 m/S 745 mmHg 84%
    05:00 -4°C° 0 mm 2 m/S 746 mmHg 85%
    06:00 -4°C° 0 mm 2 m/S 746 mmHg 85%
    07:00 -5°C° 0 mm 2 m/S 746 mmHg 86%
    08:00 -4°C° 0 mm 2 m/S 746 mmHg 79%
    09:00 -4°C° 0 mm 3 m/S 746 mmHg 73%
    10:00 -2°C° 0 mm 3 m/S 746 mmHg 66%
    11:00 -1°C° 0 mm 3 m/S 746 mmHg 62%
    12:00 0°C° 0 mm 3 m/S 746 mmHg 57%
    13:00 0°C° 0 mm 4 m/S 746 mmHg 53%
    14:00 0°C° 0 mm 4 m/S 746 mmHg 55%
    15:00 0°C° 0 mm 4 m/S 745 mmHg 56%
    16:00 0°C° 0 mm 4 m/S 745 mmHg 58%
    17:00 -1°C° 0 mm 4 m/S 745 mmHg 63%
    18:00 -2°C° 0 mm 4 m/S 746 mmHg 68%
    19:00 -2°C° 0 mm 3 m/S 746 mmHg 74%
    20:00 -2°C° 0 mm 3 m/S 746 mmHg 75%
    21:00 -4°C° 0 mm 3 m/S 746 mmHg 76%
    22:00 -4°C° 0 mm 3 m/S 746 mmHg 78%
    23:00 -4°C° 0 mm 3 m/S 746 mmHg 78%

    22 Februar, Donnerstag

    Zeit Temperatur Niederschläge Wind Luftdruck Luftfeuchtigkeit
    00:00 -4°C° 0 mm 3 m/S 746 mmHg 78%
    01:00 -5°C° 0 mm 3 m/S 746 mmHg 78%
    02:00 -5°C° 0 mm 3 m/S 746 mmHg 78%
    03:00 -5°C° 0 mm 4 m/S 745 mmHg 77%
    04:00 -5°C° 0 mm 4 m/S 745 mmHg 77%
    05:00 -5°C° 0 mm 4 m/S 745 mmHg 76%
    06:00 -5°C° 0 mm 4 m/S 745 mmHg 75%
    07:00 -5°C° 0 mm 4 m/S 745 mmHg 75%
    08:00 -6°C° 0 mm 5 m/S 745 mmHg 71%
    09:00 -5°C° 0 mm 5 m/S 744 mmHg 67%
    10:00 -5°C° 0 mm 5 m/S 744 mmHg 63%
    11:00 -4°C° 0 mm 5 m/S 744 mmHg 60%
    12:00 -2°C° 0 mm 5 m/S 744 mmHg 58%
    13:00 -2°C° 0 mm 5 m/S 743 mmHg 55%
    14:00 -2°C° 0 mm 5 m/S 743 mmHg 57%
    15:00 -3°C° 0 mm 6 m/S 743 mmHg 59%
    16:00 -3°C° 0 mm 6 m/S 742 mmHg 60%
    17:00 -4°C° 0 mm 5 m/S 742 mmHg 64%
    18:00 -4°C° 0 mm 5 m/S 742 mmHg 67%
    19:00 -5°C° 0 mm 5 m/S 742 mmHg 71%
    20:00 -5°C° 0 mm 5 m/S 743 mmHg 72%
    21:00 -5°C° 0 mm 5 m/S 743 mmHg 72%
    22:00 -5°C° 0 mm 4 m/S 743 mmHg 73%
    23:00 -5°C° 0 mm 4 m/S 742 mmHg 72%

    23 Februar, Freitag

    Zeit Temperatur Niederschläge Wind Luftdruck Luftfeuchtigkeit
    00:00 -5°C° 0 mm 4 m/S 742 mmHg 72%
    01:00 -5°C° 0 mm 4 m/S 742 mmHg 72%
    02:00 -7°C° 0 mm 4 m/S 742 mmHg 71%
    03:00 -7°C° 0 mm 4 m/S 742 mmHg 70%
    04:00 -7°C° 0 mm 4 m/S 742 mmHg 69%
    05:00 -8°C° 0 mm 4 m/S 742 mmHg 69%
    06:00 -8°C° 0 mm 4 m/S 742 mmHg 69%
    07:00 -8°C° 0 mm 4 m/S 742 mmHg 68%
    08:00 -7°C° 0 mm 4 m/S 743 mmHg 65%
    09:00 -7°C° 0 mm 5 m/S 743 mmHg 62%
    10:00 -6°C° 0 mm 5 m/S 743 mmHg 59%
    11:00 -5°C° 0 mm 5 m/S 743 mmHg 57%
    12:00 -5°C° 0 mm 5 m/S 743 mmHg 54%
    13:00 -4°C° 0 mm 6 m/S 744 mmHg 52%
    14:00 -5°C° 0 mm 6 m/S 743 mmHg 50%
    15:00 -5°C° 0 mm 6 m/S 743 mmHg 48%
    16:00 -5°C° 0 mm 6 m/S 743 mmHg 46%
    17:00 -6°C° 0 mm 6 m/S 743 mmHg 49%
    18:00 -7°C° 0 mm 5 m/S 744 mmHg 51%
    19:00 -8°C° 0 mm 5 m/S 744 mmHg 54%
    20:00 -8°C° 0 mm 5 m/S 744 mmHg 58%
    21:00 -8°C° 0 mm 5 m/S 744 mmHg 61%
    22:00 -9°C° 0 mm 6 m/S 745 mmHg 65%
    23:00 -8°C° 0,1 mm 5 m/S 745 mmHg 65%
    Mehr zeigen